DW7027 Weather Reports


Display with metric or nautical units.
time (UTC)temp
F
wind
direction
speed
MPH
gust
MPH
rain 1hr
in
rain 24hr
in
rain mn
in
humidity
%
barometer
mb
20260504224706 60 117 4.0 7.0 0.00 0.00 0.00 46 1016.1
20260504224205 60 114 5.0 7.0 0.00 0.00 0.00 46 1015.8
20260504223205 61 107 5.0 6.0 0.00 0.00 0.00 45 1016.1
20260504222706 61 110 5.0 7.0 0.00 0.00 0.00 45 1016.2
20260504222206 61 117 6.0 8.0 0.00 0.00 0.00 45 1016.1
20260504221706 61 110 5.0 7.0 0.00 0.00 0.00 44 1016.1
20260504221205 61 106 3.0 5.0 0.00 0.00 0.00 44 1016.1
20260504220706 62 105 3.0 6.0 0.00 0.00 0.00 43 1016.0
20260504220206 62 93 3.0 5.0 0.00 0.00 0.00 43 1016.2
20260504215706 62 91 3.0 5.0 0.00 0.00 0.00 42 1016.4
20260504215205 63 93 3.0 6.0 0.00 0.00 0.00 42 1016.2
20260504214707 63 114 4.0 7.0 0.00 0.00 0.00 42 1016.0
20260504214206 63 116 4.0 7.0 0.00 0.00 0.00 42 1016.3
20260504213706 63 127 3.0 6.0 0.00 0.00 0.00 42 1016.3
20260504212706 63 112 3.0 5.0 0.00 0.00 0.00 41 1016.2
20260504211706 64 115 2.0 6.0 0.00 0.00 0.00 41 1016.5
20260504211206 64 128 2.0 6.0 0.00 0.00 0.00 41 1016.4
20260504210705 64 121 2.0 5.0 0.00 0.00 0.00 40 1016.4
20260504210206 65 116 3.0 7.0 0.00 0.00 0.00 40 1016.2
20260504205706 65 115 3.0 6.0 0.00 0.00 0.00 40 1016.3
20260504205206 65 140 3.0 7.0 0.00 0.00 0.00 40 1016.5
20260504204706 65 136 3.0 8.0 0.00 0.00 0.00 40 1016.6
20260504203706 66 118 4.0 8.0 0.00 0.00 0.00 40 1016.2
20260504203206 66 126 5.0 8.0 0.00 0.00 0.00 40 1016.2
20260504202204 66 126 3.0 8.0 0.00 0.00 0.00 40 1016.4
20260504201704 66 124 3.0 6.0 0.00 0.00 0.00 39 1016.3
20260504201205 66 125 4.0 8.0 0.00 0.00 0.00 39 1016.4
20260504200704 67 130 3.0 7.0 0.00 0.00 0.00 39 1016.5
20260504200205 67 147 2.0 7.0 0.00 0.00 0.00 39 1016.2
20260504195705 67 163 3.0 6.0 0.00 0.00 0.00 39 1016.5
20260504195204 67 164 2.0 8.0 0.00 0.00 0.00 38 1016.3
20260504194204 67 139 4.0 9.0 0.00 0.00 0.00 38 1016.5
20260504193705 67 141 4.0 8.0 0.00 0.00 0.00 38 1016.3
20260504193204 68 135 5.0 8.0 0.00 0.00 0.00 38 1016.3
20260504192704 68 147 5.0 8.0 0.00 0.00 0.00 38 1016.3
20260504192204 68 136 4.0 9.0 0.00 0.00 0.00 38 1016.4
20260504191704 68 139 5.0 8.0 0.00 0.00 0.00 38 1016.4
20260504191204 69 133 4.0 7.0 0.00 0.00 0.00 38 1016.5
20260504190704 69 138 5.0 9.0 0.00 0.00 0.00 37 1016.2
20260504190204 69 138 6.0 9.0 0.00 0.00 0.00 37 1016.3
20260504185704 69 145 3.0 7.0 0.00 0.00 0.00 37 1016.4
20260504185204 69 147 4.0 8.0 0.00 0.00 0.00 37 1016.2
20260504184705 69 135 5.0 7.0 0.00 0.00 0.00 37 1016.5
20260504184204 69 130 5.0 8.0 0.00 0.00 0.00 37 1016.4
20260504183705 70 129 5.0 8.0 0.00 0.00 0.00 37 1016.1
20260504183204 70 127 5.0 7.0 0.00 0.00 0.00 36 1016.2
20260504182704 70 131 5.0 8.0 0.00 0.00 0.00 36 1016.1
20260504182204 71 129 4.0 7.0 0.00 0.00 0.00 36 1016.2
20260504181705 71 134 4.0 7.0 0.00 0.00 0.00 36 1016.2
20260504181204 71 136 5.0 7.0 0.00 0.00 0.00 36 1015.9
20260504180705 71 134 5.0 9.0 0.00 0.00 0.00 36 1016.1
20260504180204 72 148 2.0 6.0 0.00 0.00 0.00 36 1015.9
20260504175205 72 142 4.0 6.0 0.00 0.00 0.00 35 1016.1
20260504174704 73 148 2.0 5.0 0.00 0.00 0.00 35 1016.1
20260504173705 73 122 2.0 6.0 0.00 0.00 0.00 35 1015.9
20260504172705 74 143 3.0 8.0 0.00 0.00 0.00 34 1015.7
20260504172205 75 136 3.0 6.0 0.00 0.00 0.00 33 1015.8
20260504171704 75 150 3.0 6.0 0.00 0.00 0.00 33 1015.7
20260504171204 75 169 4.0 7.0 0.00 0.00 0.00 33 1015.7
20260504170705 76 188 4.0 12.0 0.00 0.00 0.00 32 1015.8
20260504150704 80 198 10.0 17.0 0.00 0.00 0.00 29 1016.1
20260504150205 80 199 10.0 17.0 0.00 0.00 0.00 29 1016.0
20260504141204 80 195 9.0 16.0 0.00 0.00 0.00 32 1016.6
20260504140704 80 179 9.0 17.0 0.00 0.00 0.00 31 1016.9
20260504140204 80 212 9.0 20.0 0.00 0.00 0.00 31 1016.6
20260504130704 80 157 9.0 16.0 0.00 0.00 0.00 31 1017.2
20260504130204 79 183 9.0 20.0 0.00 0.00 0.00 32 1017.4
20260504120204 77 178 7.0 17.0 0.00 0.00 0.00 35 1018.1
20260504110704 75 191 9.0 17.0 0.00 0.00 0.00 36 1018.7
20260504110204 75 217 12.0 21.0 0.00 0.00 0.00 35 1018.9
20260504100204 74 186 12.0 20.0 0.00 0.00 0.00 37 1019.5
20260504081704 69 193 11.0 20.0 0.00 0.00 0.00 43 1019.9
20260504080704 69 195 12.0 21.0 0.00 0.00 0.00 43 1019.9
20260504080205 69 182 10.0 21.0 0.00 0.00 0.00 43 1019.8
20260504070204 66 194 13.0 23.0 0.00 0.00 0.00 44 1020.0
20260504050704 57 116 1.0 3.0 0.00 0.00 0.00 54 1020.0
20260504050204 57 129 2.0 6.0 0.00 0.00 0.00 55 1020.2
20260504045204 57 92 4.0 8.0 0.00 0.00 0.00 54 1019.8
20260504044204 57 113 5.0 9.0 0.00 0.00 0.00 54 1019.8
20260504043704 57 126 3.0 12.0 0.00 0.00 0.00 54 1019.9
20260504043205 57 125 5.0 12.0 0.00 0.00 0.00 54 1020.0
20260504041704 56 135 4.0 6.0 0.00 0.00 0.00 55 1020.0
20260504041204 56 140 3.0 7.0 0.00 0.00 0.00 54 1019.9
20260504040704 57 122 3.0 8.0 0.00 0.00 0.00 53 1019.8
20260504040204 57 117 5.0 9.0 0.00 0.00 0.00 53 1019.7
20260504035703 57 112 6.0 10.0 0.00 0.00 0.00 53 1019.9
20260504034704 57 110 7.0 14.0 0.00 0.00 0.00 53 1019.9
20260504034204 57 122 7.0 14.0 0.00 0.00 0.00 53 1019.9
20260504033704 57 117 6.0 12.0 0.00 0.00 0.00 53 1020.0
20260504033204 57 138 6.0 10.0 0.00 0.00 0.00 53 1019.9
20260504032704 58 149 4.0 9.0 0.00 0.00 0.00 53 1020.1
20260504031704 58 148 4.0 10.0 0.00 0.00 0.00 52 1020.0
20260504031204 58 157 5.0 10.0 0.00 0.00 0.00 52 1020.1
20260504030704 58 138 5.0 10.0 0.00 0.00 0.00 52 1020.2
20260504030204 58 150 6.0 13.0 0.00 0.00 0.00 52 1020.1
20260504025204 58 152 5.0 13.0 0.00 0.00 0.00 53 1020.1
20260504024704 57 155 5.0 9.0 0.00 0.00 0.00 53 1020.2
20260504024204 57 147 6.0 12.0 0.00 0.00 0.00 53 1020.3
20260504023704 57 148 6.0 9.0 0.00 0.00 0.00 53 1020.1
20260504023204 57 163 5.0 10.0 0.00 0.00 0.00 53 1020.2
20260504022703 57 153 5.0 8.0 0.00 0.00 0.00 52 1020.3
20260504022205 57 150 4.0 10.0 0.00 0.00 0.00 52 1020.1
20260504021203 57 146 5.0 8.0 0.00 0.00 0.00 52 1020.3
20260504020203 58 131 3.0 8.0 0.00 0.00 0.00 51 1020.3
20260504015704 58 134 4.0 9.0 0.00 0.00 0.00 51 1020.4
20260504015204 58 126 5.0 9.0 0.00 0.00 0.00 51 1020.1
20260504014704 58 156 3.0 7.0 0.00 0.00 0.00 51 1020.2
20260504014204 58 146 3.0 7.0 0.00 0.00 0.00 51 1020.1
20260504013704 58 140 5.0 8.0 0.00 0.00 0.00 51 1020.2
20260504013204 58 164 4.0 9.0 0.00 0.00 0.00 51 1020.4
20260504012704 58 150 3.0 6.0 0.00 0.00 0.00 51 1019.8
20260504012205 58 128 5.0 8.0 0.00 0.00 0.00 51 1020.0
20260504010704 57 139 5.0 8.0 0.00 0.00 0.00 51 1019.7
20260504004704 57 118 3.0 6.0 0.00 0.00 0.00 49 1019.9
20260504004204 57 90 3.0 5.0 0.00 0.00 0.00 49 1019.8
20260504003704 57 104 2.0 6.0 0.00 0.00 0.00 48 1019.8
20260504003204 57 102 2.0 5.0 0.00 0.00 0.00 48 1019.9
20260504001204 58 112 4.0 7.0 0.00 0.00 0.00 47 1019.8
20260504000204 58 144 3.0 7.0 0.00 0.00 0.00 46 1019.9
20260503235703 58 144 5.0 7.0 0.00 0.00 0.00 45 1020.0
20260503234703 59 124 5.0 10.0 0.00 0.00 0.00 45 1020.0
20260503234204 59 151 3.0 7.0 0.00 0.00 0.00 45 1020.0
20260503233704 59 137 3.0 9.0 0.00 0.00 0.00 44 1020.0
20260503233204 59 151 5.0 8.0 0.00 0.00 0.00 45 1020.0
20260503232704 59 151 5.0 10.0 0.00 0.00 0.00 44 1019.9
20260503232204 59 151 6.0 10.0 0.00 0.00 0.00 44 1020.0
20260503231704 59 140 5.0 9.0 0.00 0.00 0.00 44 1020.0
20260503231203 59 146 4.0 10.0 0.00 0.00 0.00 45 1020.3
20260503230203 58 144 4.0 8.0 0.00 0.00 0.00 44 1020.4
20260503225704 58 146 5.0 8.0 0.00 0.00 0.00 44 1020.4
20260503225203 58 149 5.0 8.0 0.00 0.00 0.00 44 1020.4